Regional Weather Roundup
Issued by NWS

Home | Current Version | Previous Version | Text Only | Print | Product List | Glossary On
Versions: 1 2 3 4 5 6 7 8 9 10 11 12 13 14 15 16 17 18 19 20 21 22 23 24 25 26 27 28 29 30 31 32 33 34 35 36 37 38 39 40 41 42 43 44 45 46 47 48 49 50
000
ASUS43 KLSX 051407
RWRMO

WEATHER SUMMARY FOR MISSOURI
NATIONAL WEATHER SERVICE SPRINGFIELD MO
900 AM CDT SAT SEP 05 2015

NOTE: "FAIR" INDICATES FEW OR NO CLOUDS BELOW 12,000 FEET WITH NO
       SIGNIFICANT WEATHER AND/OR OBSTRUCTIONS TO VISIBILITY.
       CURRENT SKY AND/OR WEATHER CONDITIONS ARE NOT AVAILABLE FOR
       CHILLICOTHE AND FARMINGTON.

MOZ001>031-035>038-043-044-053-054-051500-
...NORTHERN AND WESTERN MISSOURI...

CITY           SKY/WX    TMP DP  RH WIND       PRES   REMARKS
KANSAS CTY INT MOSUNNY   80  70  71 S12       30.03R
KANSAS C DTWN  SUNNY     81  70  69 S10       30.02S
LEE`S SUMMIT   SUNNY     78  68  71 SW8       30.05R
ST JOSEPH      SUNNY     79  70  74 S10       30.01S
CHILLICOTHE      N/A     79  71  76 SE5       30.05S
KIRKSVILLE     SUNNY     79  69  71 S12       30.07S

$$
MOZ066>068-077>081-088>096-101>105-051500-
...SOUTHWEST MISSOURI...

CITY           SKY/WX    TMP DP  RH WIND       PRES   REMARKS
SPRINGFIELD    SUNNY     79  69  71 S12       30.09S
JOPLIN         SUNNY     79  69  71 S13       30.07R

$$
MOZ032>034-039>042-045>050-055>058-069>072-051500-
...CENTRAL MISSOURI...

CITY           SKY/WX    TMP DP  RH WIND       PRES   REMARKS
COLUMBIA       SUNNY     78  71  79 S7        30.09S
JEFFERSON CITY SUNNY     76  70  82 E3        30.08S
ROLLA          SUNNY     81  69  67 S9        30.10S
SEDALIA        MOSUNNY   81  70  69 S9        30.08R
WHITEMAN AFB   SUNNY     78  69  73 S8        30.05R
WARRENSBURG    SUNNY     77  68  73 S8        30.05S
OSAGE BEACH    SUNNY     77  68  73 S8        30.09F

$$
MOZ051-052-059>065-051500-
...EAST CENTRAL MISSOURI...

CITY           SKY/WX    TMP DP  RH WIND       PRES   REMARKS
ST LOUIS INTL  SUNNY     83  69  62 CALM      30.11S
SPIRIT OF STL  SUNNY     77  72  84 CALM      30.09S
ST CHARLES     SUNNY     79  73  82 E3        30.09S

$$
MOZ072>076-082>087-097>100-106>115-051500-
...SOUTH CENTRAL AND SOUTHEAST MISSOURI...

CITY           SKY/WX    TMP DP  RH WIND       PRES   REMARKS
CAPE GIRARDEAU SUNNY     78  72  81 CALM      30.09S HAZE
FARMINGTON     SUNNY     75  72  88 CALM      30.14F
POPLAR BLUFF   SUNNY     79  72  79 NE3       30.08S
WEST PLAINS    SUNNY     79  69  71 SE5       30.13S

$$


USA.gov is the U.S. government's official web portal to all federal, state and local government web resources and services.